Moline, IL
on Sunday, March 30, 2014

Sunday
Previous Day Next Day
Daily Summary
 ActualAverageRecord
Temperature
Mean Temperature °F 45°F  
Max Temperature 63°F 56°F 82°F (1986)
Min Temperature 28°F 35°F 12°F (1969)
Degree Days
Heating Degree Days 19 20  
Month to date heating degree days 1017 785  
Since 1 July heating degree days 6687 5583  
Cooling Degree Days 0 0  
Month to date cooling degree days 0 0  
Year to date cooling degree days 0 0  
Moisture
Dew Point 32°F   
Average Humidity 60    
Maximum Humidity 85    
Minimum Humidity 34    
Precipitation
Precipitation 0.00 in 0.10 in 1.19 in (1926)
Month to date precipitation 0.90 2.76  
Year to date precipitation 4.92 5.85  
Snow
Snow 0.00 in 0.10 in in ()
Month to date snowfall 10.3 3.9  
Since 1 July snowfall 65.1 30.6  
Snow Depth 0.00 in   
Wind
Wind Speed 11 mph   
Max Wind Speed 21 mph   
Max Gust Speed 28 mph   
Visibility 9 miles   
Events     

Key: T is trace of precipitation, MM is missing value
Source: NWS Daily Summary
Time(CDT)TemperatureDew PointHumidity Pressure Visibility Wind DirectionWind SpeedGust SpeedPrecipitationEvents Conditions
12:52 AM 30.0°F 25.0°F 82% 30.26 in 10.0 miles Calm Calm - N/A   Clear
1:52 AM 32.0°F 26.1°F 79% 30.26 in 10.0 miles Calm Calm - N/A   Clear
2:52 AM 30.9°F 26.1°F 82% 30.21 in 10.0 miles ESE 3.5 mph - N/A   Clear
3:52 AM 33.1°F 27.0°F 78% 30.21 in 9.0 miles South 6.9 mph - N/A   Clear
4:52 AM 32.0°F 27.0°F 82% 30.20 in 8.0 miles SE 4.6 mph - N/A   Clear
5:52 AM 30.9°F 26.1°F 82% 30.21 in 8.0 miles SSE 3.5 mph - N/A   Clear
6:52 AM 30.9°F 26.1°F 82% 30.21 in 6.0 miles South 4.6 mph - N/A   Haze
7:52 AM 33.1°F 28.0°F 82% 30.22 in 7.0 miles South 10.4 mph - N/A   Clear
8:52 AM 37.9°F 30.9°F 76% 30.22 in 8.0 miles South 10.4 mph - N/A   Clear
9:52 AM 45.0°F 33.1°F 63% 30.20 in 8.0 miles South 8.1 mph 19.6 mph N/A   Clear
10:52 AM 48.9°F 33.1°F 54% 30.19 in 8.0 miles South 12.7 mph - N/A   Clear
11:52 AM 53.1°F 34.0°F 48% 30.15 in 9.0 miles South 13.8 mph - N/A   Clear
12:52 PM 57.0°F 34.0°F 42% 30.12 in 10.0 miles SSW 15.0 mph 21.9 mph N/A   Clear
1:52 PM 60.1°F 36.0°F 41% 30.09 in 10.0 miles South 16.1 mph 21.9 mph N/A   Clear
2:52 PM 62.1°F 35.1°F 37% 30.05 in 10.0 miles South 12.7 mph 24.2 mph N/A   Clear
3:52 PM 63.0°F 34.0°F 34% 30.02 in 10.0 miles South 13.8 mph 21.9 mph N/A   Clear
4:52 PM 63.0°F 34.0°F 34% 29.99 in 10.0 miles South 13.8 mph 24.2 mph N/A   Clear
5:52 PM 61.0°F 34.0°F 36% 29.98 in 10.0 miles SSE 17.3 mph 24.2 mph N/A   Clear
6:52 PM 59.0°F 35.1°F 41% 29.97 in 10.0 miles SE 10.4 mph - N/A   Clear
7:52 PM 55.0°F 36.0°F 49% 29.96 in 10.0 miles SSE 11.5 mph - N/A   Clear
8:52 PM 52.0°F 37.9°F 59% 29.96 in 10.0 miles SSE 17.3 mph 25.3 mph N/A   Clear
9:52 PM 50.0°F 37.0°F 61% 29.96 in 10.0 miles South 13.8 mph - N/A   Clear
10:52 PM 50.0°F 37.0°F 61% 29.95 in 10.0 miles SSE 12.7 mph - N/A   Clear
11:52 PM 50.0°F 36.0°F 59% 29.96 in 10.0 miles SSE 10.4 mph - N/A   Clear
Astronomy
Sunrise:06:48 AM (CDT) Moon Rise:06:34 AM (CDT)3/30
Sunset:07:25 PM (CDT) Moon Set:07:38 PM (CDT)3/30
Moon Phase
Mar. 30 Mar. 30 Apr. 07 Apr. 15 Apr. 22

Copyright © 2016 The Weather Underground, Inc.















  Today is Tuesday July 26, the 208th day of 2016. There are 158 days left in the year.
1866 -- 150 years ago: The First National Bank Association of Moline has purchased a lot on the corner of Mill and Main streets and will soon begin the erection of building.
1891 -- 125 years ago: Messrs. S.S. Kemble, M.J. Galt and Ralph Haverstick reported catching huge strings of fish on their fishing trip at Watertown.
1916 -- 100 years ago: A.L. Larson saved several people from possible serious injury when he stopped a team of runaway horses after a dash of many blocks.
1941 -- 75 years ago: The Rock Island Retail Grocers and Meat Dealers Association will be closed tomorrow for the excursion to Muscatine and back.
1966 -- 50 years ago: A new 80-by-120 foot horse barn has been built to accommodate 100 horses for future projects at the Rock Island County Fairgrounds in East Moline. A similar structure to house the hog shows at the county fair also has been erected.
1991 -- 25 years ago: The two Hogan's Shell service station/video stores in Moline have been sold back to Shell Oil Co. and are being renovated into Mother Hubbard's Cupboard convenience stores.